GW6488 Weather Reports


time (UTC)temp
F
wind
direction
speed
knots
gust
knots
rain 1hr
in
rain 24hr
in
rain mn
in
humidity
%
barometer
mb
20260510043225 47 8 0.0 0.0 0.00 0.00 0.00 87 977.3
20260510042722 47 7 0.0 0.0 0.00 0.00 0.00 86 977.1
20260510042217 48 39 0.0 0.9 0.00 0.00 0.00 84 977.3
20260510041715 50 185 1.7 1.7 0.00 0.00 0.00 82 977.3
20260510041212 50 191 0.9 1.7 0.00 0.00 0.00 81 977.3
20260510040709 50 181 2.6 2.6 0.00 0.00 0.00 82 977.1
20260510040206 50 176 0.9 0.9 0.00 0.00 0.00 81 977.2
20260510035701 50 345 0.0 0.9 0.00 0.00 0.00 81 977.1
20260510035157 50 5 0.0 0.9 0.00 0.00 0.00 80 977.2
20260510034653 51 4 0.0 0.0 0.00 0.00 0.00 79 977.3
20260510034150 52 40 0.0 0.0 0.00 0.00 0.00 77 977.3
20260510033646 53 101 1.7 2.6 0.00 0.00 0.00 76 977.3
20260510033145 53 30 0.9 0.9 0.00 0.00 0.00 74 977.3
20260510032641 53 254 0.9 1.7 0.00 0.00 0.00 73 977.2
20260510032136 52 181 0.0 0.0 0.00 0.00 0.00 77 977.3
20260510031631 52 185 2.6 2.6 0.00 0.00 0.00 76 977.1
20260510031129 52 171 1.7 2.6 0.00 0.00 0.00 76 977.0
20260510030623 52 177 3.5 3.5 0.00 0.00 0.00 77 977.1
20260510030121 53 70 0.9 0.9 0.00 0.00 0.00 77 977.0
20260510025618 52 174 3.5 3.5 0.00 0.00 0.00 76 977.1
20260510025115 52 176 3.5 3.5 0.00 0.00 0.00 77 976.8
20260510024612 53 112 0.9 0.9 0.00 0.00 0.00 76 976.9
20260510024108 53 171 2.6 2.6 0.00 0.00 0.00 74 976.7
20260510023604 53 149 0.9 0.9 0.00 0.00 0.00 74 976.8
20260510023102 53 174 3.5 3.5 0.00 0.00 0.00 73 976.7
20260510022601 54 183 1.7 1.7 0.00 0.00 0.00 73 976.7
20260510022056 54 176 1.7 2.6 0.00 0.00 0.00 72 976.7
20260510021552 55 175 2.6 2.6 0.00 0.00 0.00 71 976.5
20260510021050 55 180 2.6 2.6 0.00 0.00 0.00 71 976.5
20260510020550 55 173 0.9 0.9 0.00 0.00 0.00 71 976.4
20260510020046 55 172 0.9 0.9 0.00 0.00 0.00 71 976.3
20260510015542 55 185 1.7 2.6 0.00 0.00 0.00 70 976.3
20260510015038 55 170 0.9 0.9 0.00 0.00 0.00 71 976.2
20260510014534 55 184 1.7 1.7 0.00 0.00 0.00 70 976.2
20260510014032 55 173 2.6 3.5 0.00 0.00 0.00 67 976.1
20260510013532 55 105 2.6 2.6 0.00 0.00 0.00 71 975.9
20260510013028 55 178 1.7 1.7 0.00 0.00 0.00 70 975.8
20260510012528 56 184 0.9 1.7 0.00 0.00 0.00 67 975.6
20260510012025 57 167 0.9 0.9 0.00 0.00 0.00 65 975.7
20260510011524 57 184 2.6 2.6 0.00 0.00 0.00 65 975.4
20260510011020 57 172 2.6 2.6 0.00 0.00 0.00 64 975.6
20260510010517 57 171 2.6 2.6 0.00 0.00 0.00 65 975.4
20260510010014 57 179 0.9 1.7 0.00 0.00 0.00 67 975.5
20260510005510 57 159 0.9 1.7 0.00 0.00 0.00 66 975.2
20260510005008 58 174 3.5 3.5 0.00 0.00 0.00 65 975.3
20260510004505 58 179 0.9 1.7 0.00 0.00 0.00 65 975.2
20260510004003 58 106 0.9 0.9 0.00 0.00 0.00 65 975.0
20260510003459 59 171 0.0 0.9 0.00 0.00 0.00 64 975.0
20260510002954 59 176 3.5 3.5 0.00 0.00 0.00 62 974.6
20260510002450 61 182 2.6 2.6 0.00 0.00 0.00 58 974.5
20260510001947 61 183 0.9 1.7 0.00 0.00 0.00 58 974.6
20260510001444 62 197 0.9 1.7 0.00 0.00 0.00 52 974.4
20260510000942 65 108 0.9 0.9 0.00 0.00 0.00 46 974.5
20260510000440 64 103 0.0 0.9 0.00 0.00 0.00 48 974.3
20260509235935 66 162 0.0 0.0 0.00 0.00 0.00 47 974.3
20260509235432 67 76 0.9 0.9 0.00 0.00 0.00 44 974.3
20260509234928 68 178 0.9 1.7 0.00 0.00 0.00 40 974.2
20260509234425 68 191 1.7 2.6 0.00 0.00 0.00 40 974.0
20260509233923 68 182 1.7 1.7 0.00 0.00 0.00 40 974.1
20260509233420 69 192 0.0 0.0 0.00 0.00 0.00 39 974.4
20260509232916 70 181 4.3 5.2 0.00 0.00 0.00 38 974.1
20260509232414 69 176 2.6 3.5 0.00 0.00 0.00 39 974.1
20260509231909 70 180 1.7 2.6 0.00 0.00 0.00 42 974.2
20260509231406 71 233 0.9 0.9 0.00 0.00 0.00 39 974.1
20260509230905 71 184 1.7 2.6 0.00 0.00 0.00 38 974.1
20260509230401 71 45 0.9 1.7 0.00 0.00 0.00 37 974.2
20260509225857 72 120 0.9 0.9 0.00 0.00 0.00 37 974.0
20260509225354 72 179 6.1 7.0 0.00 0.00 0.00 35 973.9
20260509224849 72 179 3.5 6.1 0.00 0.00 0.00 36 973.9
20260509224345 72 178 6.1 7.0 0.00 0.00 0.00 36 973.9
20260509223843 72 194 0.0 0.0 0.00 0.00 0.00 39 973.8
20260509223339 73 183 2.6 2.6 0.00 0.00 0.00 37 974.0
20260509222836 73 33 0.0 0.9 0.00 0.00 0.00 35 974.1
20260509222331 72 189 0.9 1.7 0.00 0.00 0.00 35 973.9
20260509221827 73 168 2.6 3.5 0.00 0.00 0.00 36 974.0
20260509221325 73 212 1.7 2.6 0.00 0.00 0.00 36 974.0
20260509220825 72 188 1.7 3.5 0.00 0.00 0.00 39 974.0
20260509220321 72 58 0.0 0.9 0.00 0.00 0.00 38 973.8
20260509215817 72 60 2.6 3.5 0.00 0.00 0.00 39 973.7
20260509215314 72 82 1.7 2.6 0.00 0.00 0.00 38 973.9
20260509214811 72 19 1.7 2.6 0.00 0.00 0.00 38 973.8
20260509214308 72 195 2.6 3.5 0.00 0.00 0.00 36 973.9
20260509213805 73 66 1.7 2.6 0.00 0.00 0.00 38 973.9
20260509213300 72 42 1.7 2.6 0.00 0.00 0.00 39 973.7
20260509212758 73 37 1.7 1.7 0.00 0.00 0.00 39 973.8
20260509212255 74 37 0.9 0.9 0.00 0.00 0.00 39 973.5
20260509211750 73 70 0.0 0.0 0.00 0.00 0.00 36 973.5
20260509211247 73 67 1.7 2.6 0.00 0.00 0.00 37 973.6
20260509210743 73 82 1.7 2.6 0.00 0.00 0.00 38 973.5
20260509210242 72 332 0.9 0.9 0.00 0.00 0.00 36 973.4
20260509205741 72 101 2.6 3.5 0.00 0.00 0.00 38 973.5
20260509205236 72 80 0.9 2.6 0.00 0.00 0.00 38 973.4
20260509204732 72 86 2.6 2.6 0.00 0.00 0.00 36 973.5
20260509204229 71 35 3.5 7.0 0.00 0.00 0.00 35 973.5
20260509203724 71 176 3.5 3.5 0.00 0.00 0.00 37 973.4
20260509203223 71 74 1.7 1.7 0.00 0.00 0.00 36 973.4
20260509202718 71 62 1.7 2.6 0.00 0.00 0.00 36 973.3
20260509202214 71 62 1.7 1.7 0.00 0.00 0.00 36 973.3
20260509201709 71 75 3.5 5.2 0.00 0.00 0.00 35 973.2
20260509201206 72 199 1.7 1.7 0.00 0.00 0.00 39 973.4
20260509200702 76 87 2.6 2.6 0.00 0.00 0.00 34 973.2
20260509200157 75 202 1.7 1.7 0.00 0.00 0.00 33 973.0
20260509195653 73 30 1.7 2.6 0.00 0.00 0.00 36 973.1
20260509195149 72 178 4.3 7.0 0.00 0.00 0.00 38 973.4
20260509194648 72 37 3.5 5.2 0.00 0.00 0.00 38 973.4
20260509194146 73 57 3.5 6.1 0.00 0.00 0.00 37 973.3
20260509193642 74 91 3.5 3.5 0.00 0.00 0.00 35 973.3
20260509193137 75 141 2.6 3.5 0.00 0.00 0.00 36 973.4
20260509192634 75 31 6.1 7.8 0.00 0.00 0.00 35 973.7
20260509192130 73 28 5.2 7.0 0.00 0.00 0.00 38 973.5
20260509191629 71 57 3.5 3.5 0.00 0.00 0.00 40 973.6
20260509191126 70 65 2.6 2.6 0.00 0.00 0.00 41 973.8
20260509190623 70 40 0.9 1.7 0.00 0.00 0.00 42 973.8
20260509190120 70 54 0.9 1.7 0.00 0.00 0.00 44 973.8
20260509185618 70 57 3.5 3.5 0.00 0.00 0.00 42 973.9
20260509185114 70 31 3.5 6.1 0.00 0.00 0.00 45 973.9
20260509184612 71 74 1.7 2.6 0.00 0.00 0.00 39 973.8
20260509184108 73 29 2.6 5.2 0.00 0.00 0.00 41 973.8
20260509183604 73 21 3.5 6.1 0.00 0.00 0.00 41 973.7
20260509183100 72 7 6.1 8.7 0.00 0.00 0.00 43 973.8
20260509182556 71 22 2.6 3.5 0.00 0.00 0.00 43 974.0
20260509182053 70 15 3.5 3.5 0.00 0.00 0.00 46 974.1
20260509181552 70 50 3.5 3.5 0.00 0.00 0.00 45 974.3
20260509181048 70 15 5.2 8.7 0.00 0.00 0.00 45 974.3
20260509180544 71 37 6.1 7.0 0.00 0.00 0.00 46 974.3
20260509180042 71 49 3.5 3.5 0.00 0.00 0.00 46 974.3
20260509175537 69 12 3.5 3.5 0.00 0.00 0.00 47 974.4
20260509175034 69 42 1.7 2.6 0.00 0.00 0.00 47 974.7
20260509174531 69 26 1.7 1.7 0.00 0.00 0.00 47 974.6
20260509174026 69 35 1.7 1.7 0.00 0.00 0.00 48 974.6
20260509173520 68 63 0.0 0.9 0.00 0.00 0.00 51 974.8
20260509173017 68 55 3.5 3.5 0.00 0.00 0.00 48 974.8
20260509172514 68 45 2.6 3.5 0.00 0.00 0.00 52 975.0
20260509172010 67 28 2.6 3.5 0.00 0.00 0.00 51 975.1
20260509171506 67 55 3.5 5.2 0.00 0.00 0.00 50 975.0
20260509171003 67 38 3.5 3.5 0.00 0.00 0.00 51 975.0
20260509170458 67 38 2.6 3.5 0.00 0.00 0.00 52 975.1
20260509165954 67 21 1.7 2.6 0.00 0.00 0.00 52 975.2
20260509165453 67 43 3.5 5.2 0.00 0.00 0.00 52 975.1
20260509164949 67 49 0.0 0.9 0.00 0.00 0.00 54 975.0
20260509164445 68 328 1.7 2.6 0.00 0.00 0.00 51 975.2
20260509163941 67 69 0.9 1.7 0.00 0.00 0.00 50 975.2
20260509163439 67 19 0.9 0.9 0.00 0.00 0.00 52 975.3
20260509162937 67 93 1.7 2.6 0.00 0.00 0.00 53 975.2
20260509162437 68 57 0.9 0.9 0.00 0.00 0.00 50 975.1
20260509161932 68 22 0.9 0.9 0.00 0.00 0.00 49 975.3
20260509161429 68 18 3.5 3.5 0.00 0.00 0.00 51 975.1
20260509160924 68 49 2.6 3.5 0.00 0.00 0.00 52 975.1
20260509160420 67 12 4.3 6.1 0.00 0.00 0.00 51 975.1
20260509155915 66 37 3.5 3.5 0.00 0.00 0.00 52 975.1
20260509155412 67 32 3.5 3.5 0.00 0.00 0.00 57 975.4
20260509154909 66 10 8.7 9.6 0.00 0.00 0.00 57 975.1
20260509154405 66 19 6.1 7.0 0.00 0.00 0.00 56 975.1
20260509153902 66 8 7.8 8.7 0.00 0.00 0.00 56 975.1
20260509153359 66 23 4.3 5.2 0.00 0.00 0.00 56 975.2
20260509152856 66 34 3.5 5.2 0.00 0.00 0.00 57 975.1
20260509152352 66 18 3.5 3.5 0.00 0.00 0.00 57 975.1
20260509151849 65 12 3.5 3.5 0.00 0.00 0.00 57 975.0
20260509151345 65 2 7.8 9.6 0.00 0.00 0.00 57 975.1
20260509150844 65 6 5.2 7.8 0.00 0.00 0.00 58 975.1
20260509150341 65 18 4.3 5.2 0.00 0.00 0.00 58 975.2
20260509145839 66 9 6.1 7.8 0.00 0.00 0.00 55 975.1
20260509145338 65 23 6.1 7.0 0.00 0.00 0.00 56 975.2
20260509144835 65 3 3.5 5.2 0.00 0.00 0.00 58 975.2
20260509144332 65 29 6.1 6.1 0.00 0.00 0.00 56 975.0
20260509143829 66 43 2.6 3.5 0.00 0.00 0.00 54 975.0
20260509143327 66 41 4.3 5.2 0.00 0.00 0.00 54 974.8
20260509142822 66 37 6.1 7.0 0.00 0.00 0.00 55 974.9
20260509142319 66 51 6.1 7.0 0.00 0.00 0.00 57 974.9
20260509141814 65 19 4.3 6.1 0.00 0.00 0.00 57 974.8
20260509141312 66 358 5.2 6.1 0.00 0.00 0.00 57 975.0
20260509140808 65 72 3.5 3.5 0.00 0.00 0.00 55 975.2
20260509140305 64 34 5.2 6.1 0.00 0.00 0.00 58 975.4
20260509135803 64 67 1.7 2.6 0.00 0.00 0.00 60 975.7
20260509135300 63 25 3.5 5.2 0.00 0.00 0.00 60 975.8
20260509134758 62 60 4.3 6.1 0.00 0.00 0.00 63 975.9
20260509134255 62 55 3.5 3.5 0.00 0.00 0.00 63 975.9
20260509133752 61 356 3.5 3.5 0.00 0.00 0.00 63 976.0
20260509133248 61 43 3.5 6.1 0.00 0.00 0.00 64 976.1
20260509132747 60 34 1.7 2.6 0.00 0.00 0.00 64 976.0
20260509132246 60 76 0.9 1.7 0.00 0.00 0.00 64 976.2
20260509131742 60 73 2.6 3.5 0.00 0.00 0.00 64 976.2
20260509131238 60 21 1.7 2.6 0.00 0.00 0.00 65 976.1
20260509130735 59 61 2.6 3.5 0.00 0.00 0.00 65 976.2
20260509130230 59 36 0.9 0.9 0.00 0.00 0.00 66 976.3
20260509125727 59 64 2.6 3.5 0.00 0.00 0.00 66 976.2
20260509125224 59 352 0.0 0.0 0.00 0.00 0.00 67 976.4
20260509124720 59 334 0.0 0.9 0.00 0.00 0.00 67 976.2
20260509124217 58 338 0.0 0.0 0.00 0.00 0.00 66 976.3
20260509123715 58 323 0.0 0.9 0.00 0.00 0.00 67 976.2
20260509123212 57 349 1.7 2.6 0.00 0.00 0.00 67 976.1
20260509122708 57 346 0.0 0.9 0.00 0.00 0.00 68 976.2
20260509122205 56 171 0.0 0.0 0.00 0.00 0.00 74 976.2
20260509121701 55 171 0.0 0.0 0.00 0.00 0.00 74 976.1
20260509121159 55 171 0.9 0.9 0.00 0.00 0.00 78 976.2
20260509120657 54 171 0.9 0.9 0.00 0.00 0.00 77 976.3
20260509120155 54 171 0.0 0.0 0.00 0.00 0.00 76 976.5
20260509115652 53 171 0.0 0.0 0.00 0.00 0.00 79 976.4
20260509115149 53 171 0.0 0.9 0.00 0.00 0.00 76 976.3
20260509114648 53 171 0.9 0.9 0.00 0.00 0.00 79 976.3
20260509114146 53 159 0.0 0.0 0.00 0.00 0.00 77 976.4
20260509113644 52 159 0.0 0.0 0.00 0.00 0.00 77 976.2
20260509113141 52 89 0.0 0.0 0.00 0.00 0.00 76 976.3
20260509112638 52 90 0.9 1.7 0.00 0.00 0.00 77 976.3
20260509112135 52 88 0.0 0.0 0.00 0.00 0.00 76 976.4
20260509111632 52 88 0.0 0.0 0.00 0.00 0.00 76 976.3
20260509111129 52 89 0.9 0.9 0.00 0.00 0.00 73 976.4
20260509110626 52 65 0.0 0.9 0.00 0.00 0.00 71 976.4
20260509110123 52 65 0.9 0.9 0.00 0.00 0.00 71 976.2
20260509105621 52 65 0.0 0.9 0.00 0.00 0.00 71 976.1
20260509105119 52 65 0.0 0.0 0.00 0.00 0.00 71 976.3
20260509104615 52 65 0.0 0.0 0.00 0.00 0.00 71 976.0
20260509104112 52 65 0.0 0.0 0.00 0.00 0.00 70 976.2
20260509103610 52 65 0.0 0.0 0.00 0.00 0.00 70 976.2
20260509103108 52 66 0.9 0.9 0.00 0.00 0.00 70 976.1
20260509102605 53 33 0.0 0.0 0.00 0.00 0.00 70 976.2
20260509102102 53 33 0.0 0.0 0.00 0.00 0.00 67 976.3
20260509101558 53 33 0.0 0.0 0.00 0.00 0.00 67 976.2
20260509101055 54 33 0.0 0.0 0.00 0.00 0.00 64 976.2
20260509100552 53 40 0.9 0.9 0.00 0.00 0.00 64 976.0
20260509100049 53 27 0.9 0.9 0.00 0.00 0.00 64 976.3
20260509095545 53 22 0.0 0.0 0.00 0.00 0.00 66 976.4
20260509095044 53 15 0.9 0.9 0.00 0.00 0.00 64 976.3
20260509094539 53 28 0.9 0.9 0.00 0.00 0.00 64 976.3
20260509094037 53 24 1.7 1.7 0.00 0.00 0.00 65 976.4
20260509093535 53 42 0.9 0.9 0.00 0.00 0.00 64 976.3
20260509093032 54 32 0.9 0.9 0.00 0.00 0.00 63 976.4
20260509092530 53 49 0.9 1.7 0.00 0.00 0.00 63 976.5
20260509092028 54 62 0.9 0.9 0.00 0.00 0.00 61 976.4
20260509091525 53 58 0.9 1.7 0.00 0.00 0.00 61 976.3
20260509091022 53 47 0.9 0.9 0.00 0.00 0.00 64 976.4
20260509090519 54 38 1.7 1.7 0.00 0.00 0.00 61 976.5
20260509090017 55 44 0.9 0.9 0.00 0.00 0.00 60 976.7
20260509085514 54 56 0.9 0.9 0.00 0.00 0.00 59 976.5
20260509085010 55 56 0.9 0.9 0.00 0.00 0.00 59 976.5
20260509084507 55 56 0.9 1.7 0.00 0.00 0.00 57 976.5
20260509084004 55 56 0.9 0.9 0.00 0.00 0.00 58 976.4
20260509083501 55 45 1.7 1.7 0.00 0.00 0.00 56 976.6
20260509082957 54 81 1.7 2.6 0.00 0.00 0.00 58 976.5
20260509082455 55 40 0.0 0.9 0.00 0.00 0.00 60 976.6
20260509081952 55 18 1.7 1.7 0.00 0.00 0.00 57 976.6
20260509081449 55 18 0.9 1.7 0.00 0.00 0.00 58 976.5
20260509080946 55 27 0.0 0.0 0.00 0.00 0.00 56 976.7
20260509080445 55 27 0.0 0.9 0.00 0.00 0.00 57 976.5
20260509075942 55 30 0.0 0.0 0.00 0.00 0.00 59 976.8
20260509075439 55 27 0.0 0.9 0.00 0.00 0.00 60 976.7
20260509074937 56 23 0.0 0.9 0.00 0.00 0.00 57 976.7
20260509074434 55 28 3.5 3.5 0.00 0.00 0.00 55 976.5
20260509073930 55 19 0.9 1.7 0.00 0.00 0.00 58 976.9
20260509073427 55 16 1.7 1.7 0.00 0.00 0.00 57 977.0
20260509072923 56 23 0.0 0.0 0.00 0.00 0.00 58 977.0
20260509072420 56 21 0.9 1.7 0.00 0.00 0.00 55 976.9
20260509071917 56 13 0.9 0.9 0.00 0.00 0.00 56 977.0
20260509071414 56 21 1.7 2.6 0.00 0.00 0.00 57 977.1
20260509070912 57 19 0.0 0.0 0.00 0.00 0.00 55 977.0
20260509070408 58 95 1.7 1.7 0.00 0.00 0.00 51 977.1
20260509065903 57 87 2.6 3.5 0.00 0.00 0.00 52 977.2
20260509065400 57 83 1.7 1.7 0.00 0.00 0.00 53 977.2
20260509064856 55 23 0.9 1.7 0.00 0.00 0.00 58 977.2
20260509064354 55 14 1.7 2.6 0.00 0.00 0.00 59 977.0
20260509063851 55 37 2.6 3.5 0.00 0.00 0.00 57 977.2
20260509063347 54 23 0.9 1.7 0.00 0.00 0.00 61 977.2
20260509062845 54 33 1.7 1.7 0.00 0.00 0.00 60 977.5
20260509062342 55 5 3.5 3.5 0.00 0.00 0.00 58 977.3
20260509061839 57 28 1.7 1.7 0.00 0.00 0.00 54 977.4
20260509061337 58 64 2.6 5.2 0.00 0.00 0.00 50 977.3
20260509060834 58 105 3.5 5.2 0.00 0.00 0.00 49 977.3
20260509060331 58 94 4.3 6.1 0.00 0.00 0.00 51 977.5
20260509055826 58 35 0.0 0.9 0.00 0.00 0.00 52 977.5
20260509055321 55 212 2.6 3.5 0.00 0.00 0.00 59 977.7
20260509054819 50 38 0.0 0.9 0.00 0.00 0.00 66 977.5
20260509054315 47 149 0.0 0.9 0.00 0.00 0.00 80 977.6
20260509053814 46 97 0.0 0.0 0.00 0.00 0.00 82 977.6
20260509053310 46 97 0.9 0.9 0.00 0.00 0.00 84 977.7
20260509052808 45 97 0.0 0.0 0.00 0.00 0.00 85 977.9
20260509052307 45 98 0.9 0.9 0.00 0.00 0.00 87 977.9
20260509051804 44 98 0.0 0.0 0.00 0.00 0.00 87 978.0
20260509051301 44 98 0.0 0.0 0.00 0.00 0.00 86 977.9
20260509050758 44 97 0.0 0.0 0.00 0.00 0.00 87 977.9
20260509050254 45 98 0.0 0.0 0.00 0.00 0.00 86 977.9
20260509045752 45 98 0.0 0.0 0.00 0.00 0.00 86 977.7
20260509045248 46 98 0.0 0.0 0.00 0.00 0.00 85 977.7
20260509044746 46 98 0.0 0.0 0.00 0.00 0.00 84 977.8
20260509044243 47 98 0.0 0.0 0.00 0.00 0.00 83 977.8
20260509043739 46 98 0.9 0.9 0.00 0.00 0.00 83 977.8